Location: *
(33.8649°S, 62.1526°E)
Time: 04:14:37
(UTC+00:00)

OBJECT-B - Pass Details

Date: 17 January 2021
Orbit: 421 x 423 km, 97.0° (Epoch: 26 February)

Event Time Altitude Azimuth Distance (km) Brightness Sun altitude
Rises 16:08:00 0° 160° (SSE) 2,414 4.8 -12.2°
Reaches altitude 10° 16:10:08 10° 150° (SSE) 1,539 3.7 -12.5°
Maximum altitude 16:13:12 35° 82° (E) 713 1.4 -13.1°
Enters shadow 16:14:42 23° 32° (NNE) 975 2.0 -13.3°
